Location: Ebenezer
(18.2167°N, 63.0667°W)
Time: 12:52:20
(UTC+00:00)

Cosmos 2221 - Pass Details

Date: 26 January 2020
Orbit: 593 x 616 km, 82.5° (Epoch: 24 February)

Event Time Altitude Azimuth Distance (km) Brightness Sun altitude
Rises 22:43:43 0° 15° (NNE) 2,837 5.6 -10.0°
Reaches altitude 10° 22:46:19 10° 31° (NNE) 1,937 4.7 -10.6°
Maximum altitude 22:49:40 22° 82° (E) 1,322 3.6 -11.4°
Drops below altitude 10° 22:53:01 10° 134° (SE) 1,944 4.8 -12.2°
Sets 22:55:37 0° 149° (SSE) 2,850 5.8 -12.7°
